Theta_e
299 299 299 300 300 300 299 300 301 301 300 299 299 298 299 299 298 298 298 298 298 298 298 298 298 298 297 297 297 297 297 297 297 298 299 299 298 297 297 297 297 297 297 298 298 298 299 298 298 299 299 299 298 298 298 298 297 297 297 297 297 296 296 295 295 295 295 295 296
298 298 299 301 300 300 299 299 300 300 300 299 299 299 299 298 298 298 298 297 298 298 298 298 298 297 297 297 297 297 297 296 296 297 297 297 297 297 297 297 297 297 298 298 297 298 298 298 298 298 299 299 298 298 298 298 298 297 297 296 297 297 296 296 296 296 296 295 296
298 298 298 298 298 298 298 298 298 298 298 298 298 298 298 298 298 297 298 297 297 297 297 298 297 297 297 297 296 297 296 296 296 296 297 297 297 297 297 297 297 298 298 298 298 298 298 298 298 299 299 299 298 298 298 298 298 297 297 296 297 297 297 297 296 297 297 297 296
297 297 297 297 297 297 297 298 297 297 297 298 297 297 297 297 297 297 297 297 297 297 297 297 297 297 297 296 296 296 297 297 297 297 297 297 297 297 297 297 297 297 297 297 297 297 297 297 298 299 299 298 298 298 298 298 298 298 298 297 297 297 297 297 297 297 297 297 296
297 297 297 297 297 297 297 297 297 297 297 297 297 297 297 297 297 297 297 296 297 297 297 296 297 298 297 297 296 296 296 296 298 298 297 296 296 297 297 296 297 297 297 297 296 297 297 296 298 298 298 298 298 298 298 298 298 298 298 298 298 298 297 297 297 297 297 297 297
297 297 297 297 297 297 297 297 297 297 297 297 296 296 296 297 297 297 296 297 297 297 297 298 298 299 298 297 296 296 296 296 296 296 296 296 296 296 296 296 296 296 296 296 296 296 296 296 297 297 297 297 298 298 298 297 298 298 298 298 298 298 298 297 297 297 297 297 297
297 297 297 297 297 297 297 297 297 297 297 296 296 296 296 296 296 296 296 297 297 297 298 299 298 298 297 296 296 296 296 296 295 295 295 296 296 296 296 296 296 295 295 295 295 295 295 295 296 297 297 298 297 297 296 296 297 297 297 297 298 298 297 297 297 297 297 295 295
297 297 297 297 297 296 296 296 296 296 296 296 296 296 296 296 296 296 296 297 297 297 297 297 296 296 295 295 295 295 295 295 295 295 295 295 295 295 295 295 295 295 294 294 294 294 294 295 295 295 295 296 296 295 295 294 294 294 295 295 296 296 296 296 295 296 295 294 294
296 296 297 297 296 297 296 296 296 296 296 296 296 296 296 296 296 296 296 296 297 297 296 296 295 295 295 294 294 295 295 295 295 294 294 294 294 294 294 294 294 294 294 294 294 293 293 295 295 295 295 295 295 295 294 293 293 293 293 294 294 295 295 295 294 294 294 294 293
296 296 296 296 296 296 296 296 296 296 296 296 296 296 297 298 297 296 296 297 296 296 295 295 294 294 294 294 294 294 294 294 294 294 294 294 294 294 293 293 293 293 293 293 293 293 293 294 294 294 294 294 293 293 293 292 292 292 292 293 293 293 293 293 293 293 293 293 293
295 295 295 295 296 296 296 296 296 296 296 295 296 295 296 297 296 296 296 296 295 294 294 294 294 294 293 293 293 294 294 294 294 293 293 293 293 293 293 293 292 292 292 292 293 293 293 293 293 293 293 293 292 292 292 291 291 291 291 292 292 291 291 292 292 292 292 292 292
295 295 295 295 295 295 295 295 295 295 295 295 295 295 295 294 294 295 295 294 294 293 293 293 293 293 293 293 293 293 293 293 293 293 292 292 292 292 292 291 291 291 291 292 292 292 293 292 292 292 291 291 292 292 292 291 291 290 290 290 291 290 290 290 291 291 292 291 291
295 295 295 294 294 294 294 294 294 294 294 294 294 294 294 294 294 294 294 293 293 293 293 293 292 292 292 293 292 292 292 292 292 292 292 291 291 291 291 291 291 290 290 291 292 292 292 292 291 291 291 291 291 291 291 290 290 290 290 289 289 290 290 290 290 290 291 290 290
294 294 294 294 293 293 293 293 293 293 293 293 293 293 293 293 294 294 293 293 292 293 293 292 293 293 293 292 292 292 292 292 292 291 291 291 291 291 290 290 290 290 290 291 291 291 291 291 291 291 290 290 290 290 290 290 289 289 289 289 289 289 289 290 290 290 290 289 289
293 293 293 293 293 292 292 292 293 293 293 292 293 293 293 293 294 294 293 292 292 292 292 292 292 293 292 292 291 291 291 291 291 291 291 291 290 290 290 290 290 290 290 290 291 291 291 291 291 291 290 290 290 290 290 290 289 289 289 289 289 289 289 289 289 289 289 288 288
292 292 292 292 291 291 291 291 292 292 292 292 292 292 293 293 293 293 293 292 292 292 292 291 292 292 291 292 292 291 291 291 291 291 290 290 290 290 290 290 290 289 289 290 290 291 291 291 291 291 290 290 289 289 289 289 289 289 289 289 289 289 289 289 289 289 288 288 288
291 291 291 291 291 291 291 291 292 292 292 292 292 292 292 292 292 292 293 293 292 292 291 291 291 291 291 291 291 291 291 291 291 290 290 290 290 290 289 289 290 289 289 289 290 290 291 291 291 291 290 289 289 289 288 288 288 288 288 288 288 288 288 289 288 288 287 287 288
291 290 290 290 290 290 290 291 291 291 291 291 291 291 291 291 291 292 292 292 291 291 291 290 291 291 290 290 290 291 291 291 290 290 290 290 290 289 289 289 290 289 289 289 289 290 290 290 290 290 290 289 289 289 288 288 288 288 288 288 288 288 288 288 287 287 287 287 288
290 290 290 290 290 290 290 291 291 291 291 291 291 291 291 291 291 291 291 291 291 291 290 290 290 290 290 290 290 290 291 290 290 290 290 290 290 289 289 289 289 289 289 288 289 289 289 290 290 290 290 290 289 289 288 288 288 288 288 288 287 287 287 287 286 287 287 288 289
290 290 290 290 290 290 290 290 290 290 290 291 291 290 290 290 290 290 290 290 291 290 290 290 290 290 290 290 289 290 290 290 290 290 289 289 289 289 289 289 289 288 288 288 288 288 288 289 289 289 289 289 289 288 288 288 288 288 287 287 287 287 286 286 287 287 288 289 289
289 290 290 290 290 290 290 290 290 290 290 290 290 290 290 290 290 290 290 290 290 290 289 289 289 289 289 289 289 289 289 290 290 289 289 289 289 289 289 289 289 288 288 287 287 287 287 287 288 288 288 288 288 288 287 288 288 287 287 287 287 287 287 287 288 289 289 289 289
289 290 290 290 289 289 290 290 290 290 290 290 290 289 290 290 290 289 289 289 289 289 289 289 289 289 289 289 289 289 289 290 290 289 289 289 289 289 289 289 288 288 287 287 287 286 286 286 287 287 287 287 287 287 287 287 287 287 286 287 287 288 288 289 289 289 289 289 289
289 289 289 289 289 289 290 289 289 289 289 289 289 289 289 289 289 289 289 289 289 289 289 289 289 288 288 289 288 288 289 289 289 289 289 289 289 288 288 288 288 287 287 287 286 286 286 286 286 286 286 286 286 286 286 286 286 286 286 287 288 288 289 289 289 289 289 290 290
289 289 289 289 289 288 288 288 288 288 288 289 289 289 289 289 289 289 289 288 288 288 288 289 289 289 288 288 288 288 288 288 288 288 288 288 288 288 288 288 287 287 287 287 287 287 288 288 287 286 286 286 286 286 286 286 287 287 287 287 288 288 289 289 289 290 290 290 290
288 288 289 289 288 288 288 288 288 288 288 288 288 288 289 289 289 289 288 288 288 288 288 288 288 288 289 289 288 288 288 288 287 287 287 287 287 287 287 287 288 288 288 288 291 294 294 293 291 289 288 287 288 288 287 287 287 287 288 288 288 288 289 289 289 289 290 290 290
288 288 288 288 288 288 287 287 287 288 288 288 288 288 288 288 288 288 288 288 288 288 288 288 288 289 289 289 288 288 288 287 287 287 287 287 287 287 287 287 288 287 288 290 293 295 296 296 295 294 291 290 289 289 288 287 288 288 288 288 289 289 289 289 289 289 289 290 290
288 288 288 288 288 287 287 287 287 287 287 287 287 288 288 288 288 288 288 288 288 288 287 288 288 289 290 289 288 287 287 287 287 286 286 286 286 286 286 287 287 287 288 291 294 295 295 296 296 295 294 292 290 289 288 288 288 289 289 289 289 289 289 288 289 289 289 290 290
288 288 288 288 287 287 287 287 287 287 287 288 288 288 288 288 288 288 288 288 288 287 287 287 288 288 289 288 287 287 287 287 287 286 286 286 286 286 286 286 286 287 289 293 294 295 295 295 296 295 295 294 291 289 288 288 289 289 289 289 289 289 289 289 289 289 289 289 289
288 288 288 287 287 287 287 287 287 288 288 288 288 288 287 287 287 287 287 287 287 287 287 287 288 288 288 287 287 287 286 286 286 286 286 286 285 285 285 286 286 288 290 294 294 295 295 295 295 295 295 295 293 291 290 290 290 289 289 289 289 289 289 289 289 289 289 289 289
288 288 288 287 287 287 287 288 288 288 288 288 288 287 287 287 287 287 287 287 286 287 287 288 288 287 287 287 287 287 287 287 286 286 286 285 285 285 286 286 286 287 290 293 294 295 295 295 295 295 295 295 293 292 290 290 290 289 289 289 289 289 289 289 289 289 289 289 289
288 288 288 287 287 287 288 288 288 288 288 288 288 287 287 287 287 287 286 286 287 287 288 288 287 287 286 287 287 287 286 286 286 286 285 285 286 286 286 286 285 287 289 293 294 294 294 294 295 295 295 295 294 292 290 290 290 289 289 289 289 289 289 289 289 289 289 290 290
289 288 288 287 288 288 288 288 288 288 288 287 287 287 287 287 286 286 286 287 287 287 287 287 286 286 286 286 286 286 286 286 285 286 286 286 285 285 285 286 285 287 289 293 293 294 294 294 295 294 295 295 294 292 291 290 290 290 289 289 289 289 289 289 289 289 289 290 290
288 288 288 288 288 288 288 288 288 288 287 287 287 287 287 287 286 287 287 287 287 287 286 286 286 286 286 286 286 286 286 286 286 286 286 286 286 285 285 286 285 287 290 293 293 294 294 294 294 294 294 295 293 292 290 290 290 290 290 289 289 289 289 289 289 289 289 290 290
288 288 288 288 288 288 288 288 288 288 287 287 287 287 287 286 286 286 287 287 287 287 287 286 286 286 286 286 285 285 285 286 286 285 285 285 285 285 285 285 286 288 291 293 293 294 294 294 294 294 294 294 293 291 290 290 290 290 289 289 289 290 290 289 289 289 289 289 290
288 288 288 288 288 288 288 288 288 288 287 287 287 287 287 286 286 286 287 288 288 287 287 286 286 286 286 286 285 285 285 286 285 285 285 285 285 285 285 285 285 288 291 293 293 293 293 294 294 294 294 293 292 291 290 289 289 289 289 289 289 289 289 289 289 289 289 289 290
289 288 288 288 288 288 288 288 288 288 287 287 287 287 287 286 286 287 287 288 288 287 286 286 286 286 285 285 285 285 285 285 285 285 285 285 285 284 284 284 285 287 290 292 293 293 293 293 293 294 293 292 291 290 290 289 289 289 289 289 289 289 289 289 289 290 289 289 290
288 288 288 288 288 288 288 288 288 287 287 287 287 286 286 286 286 287 287 288 287 286 286 286 285 285 285 285 285 285 285 285 285 285 285 285 285 285 284 284 284 286 289 291 292 293 293 293 293 293 293 291 290 289 289 289 289 289 289 289 289 289 289 290 290 290 289 289 289
288 288 288 288 288 288 288 288 287 287 287 287 287 286 286 286 286 287 287 288 286 286 285 285 285 285 285 285 285 285 285 285 285 285 285 285 285 284 284 284 284 285 288 291 292 292 293 293 293 293 292 290 289 289 289 289 289 289 289 289 289 289 290 290 291 290 290 289 291
288 288 288 288 288 288 288 288 287 287 287 287 287 286 286 286 286 287 287 288 286 285 285 285 285 285 285 285 285 285 285 285 285 285 285 285 285 285 286 285 285 286 287 290 291 292 292 293 293 293 293 291 290 290 289 289 289 289 289 289 289 289 290 290 291 291 291 290 293
288 288 288 288 288 288 288 287 287 287 287 287 286 286 286 286 287 287 288 287 286 286 285 285 285 285 285 286 286 285 285 285 285 285 285 285 286 287 288 286 285 285 287 289 291 292 292 292 293 293 293 291 290 290 290 289 289 289 289 289 289 290 290 291 291 292 292 291 293
289 289 288 288 288 288 288 287 287 287 287 287 286 287 287 287 287 287 287 286 286 286 286 286 285 285 285 286 286 285 284 284 284 285 285 285 286 287 287 286 285 284 285 287 290 291 292 292 293 293 293 292 291 290 290 290 289 289 289 289 290 290 290 291 291 291 292 292 292
Wind_Speed
1 1 1 1 1 1 1 1 1 1 1 1 2 2 2 2 3 3 3 3 3 4 4 4 4 4 5 6 6 7 7 7 7 7 7 7 7 7 7 7 7 7 8 8 8 8 7 7 6 5 5 5 6 6 6 6 7 7 8 8 8 8 8 10 10 11 11 12 10
1 1 1 1 1 1 1 1 1 1 1 1 2 2 2 2 3 3 3 3 4 4 4 4 4 5 5 6 7 7 7 7 7 7 7 7 8 8 8 7 8 8 8 8 8 7 7 7 6 5 5 5 5 6 6 6 7 8 9 10 8 7 7 9 10 11 11 11 10
2 2 2 1 1 1 1 1 1 1 2 2 2 2 2 2 3 3 4 4 4 4 4 4 5 5 6 7 7 6 6 6 7 7 7 7 7 8 8 7 8 8 8 8 8 8 7 7 6 6 6 5 6 6 6 6 7 8 9 9 8 7 7 8 9 9 9 8 9
2 2 2 2 2 2 1 1 2 2 2 2 2 2 3 3 3 4 4 4 4 4 5 5 5 5 5 6 6 6 6 7 7 7 7 7 7 8 8 8 8 8 8 8 8 8 8 8 6 6 5 6 7 7 7 6 6 6 6 7 6 6 7 7 7 7 7 7 8
2 2 2 1 1 1 1 1 2 2 2 2 2 3 3 3 4 4 4 4 4 5 5 5 5 5 6 6 7 7 7 7 7 7 7 7 8 8 8 8 8 9 9 8 8 9 9 8 6 5 5 6 6 6 6 7 7 6 6 5 5 6 6 6 6 6 6 7 6
2 2 2 1 1 1 1 1 2 2 3 2 3 4 4 4 4 4 5 5 5 6 6 7 6 6 7 7 7 7 7 7 7 7 7 7 8 8 8 9 9 9 9 8 9 9 8 7 6 5 5 5 6 6 7 7 7 7 6 6 5 5 5 6 5 5 6 7 7
2 2 2 2 2 2 2 2 2 2 3 3 4 5 6 6 6 6 6 6 6 6 6 6 6 7 7 7 7 7 7 7 7 7 7 7 8 8 9 9 9 9 9 9 8 8 8 7 6 6 6 6 6 6 7 7 7 7 7 7 6 5 5 6 5 5 6 8 9
1 2 2 2 2 2 2 3 3 3 3 3 4 6 7 7 7 7 7 6 6 6 5 5 6 7 7 7 7 7 7 7 7 7 7 7 8 9 9 9 9 9 9 8 8 8 8 7 6 5 5 5 5 6 7 8 8 8 8 8 7 6 5 6 5 5 7 8 9
2 2 2 2 2 2 3 3 3 3 4 5 6 6 7 7 7 7 7 6 6 6 6 5 6 7 8 8 8 8 7 7 8 8 8 8 9 9 9 9 9 9 9 8 8 8 8 7 6 6 6 5 6 6 7 8 9 9 9 8 8 7 7 7 7 7 8 9 10
2 2 2 2 3 3 3 3 3 4 4 5 6 7 7 7 7 7 6 6 6 6 6 6 7 7 8 8 8 8 8 7 8 8 9 9 9 9 9 9 9 9 9 8 8 8 8 7 7 7 7 6 7 8 8 8 9 9 9 7 8 9 9 9 9 9 10 10 11
2 2 2 2 3 3 3 3 3 4 4 5 6 6 7 7 7 6 6 6 6 7 7 7 7 7 8 7 7 8 8 7 8 8 9 9 9 9 10 10 10 10 10 10 9 8 8 7 8 9 9 8 8 8 9 9 9 9 9 7 8 9 10 10 10 9 9 10 11
3 3 3 3 3 3 3 3 3 4 4 5 6 6 6 6 6 6 6 6 7 7 7 7 7 7 7 7 7 7 8 8 8 8 9 9 10 10 10 10 10 10 10 10 9 8 7 8 9 10 10 10 8 8 8 9 9 10 10 9 10 10 10 11 10 9 9 9 10
3 3 3 4 4 4 4 4 4 4 5 5 6 6 6 6 6 6 7 7 7 7 7 6 7 7 7 7 7 7 7 8 8 9 9 9 10 10 10 10 10 10 10 10 9 8 8 9 9 10 11 11 9 9 9 9 9 10 10 10 10 10 11 11 11 10 10 10 11
3 4 4 4 4 4 4 4 4 4 5 6 6 6 6 6 6 6 6 7 7 7 7 7 6 6 7 7 7 8 8 8 9 9 10 10 10 10 11 10 10 10 10 9 9 9 9 10 10 11 11 12 11 11 10 10 10 10 10 10 11 11 12 12 11 11 10 11 11
4 4 4 4 4 4 4 5 5 5 5 6 6 6 6 6 6 6 6 7 7 7 6 6 6 7 7 7 8 8 9 9 9 10 10 11 11 11 11 11 11 10 10 9 9 9 10 11 11 11 11 12 12 11 11 10 10 10 10 10 11 12 12 12 12 11 11 11 12
4 4 4 4 5 5 5 5 5 5 5 6 6 6 6 6 6 6 7 7 7 7 6 7 7 7 7 7 8 8 9 9 10 10 11 11 11 11 11 11 11 10 10 10 10 10 10 11 11 11 11 11 11 11 11 11 10 10 10 11 11 11 12 12 12 11 11 11 12
4 4 4 4 5 5 5 5 5 5 5 6 7 7 6 6 6 6 7 7 7 7 7 8 7 7 7 8 8 8 8 9 9 10 10 11 11 11 11 11 11 11 10 10 11 11 12 11 11 11 11 11 11 11 10 10 10 10 11 11 11 11 11 12 11 11 11 11 12
4 4 4 5 5 6 6 6 6 6 6 7 7 7 6 6 6 7 7 7 7 8 8 9 8 8 8 8 8 7 7 9 10 10 10 11 11 11 12 12 11 11 10 10 11 12 12 12 11 11 11 10 10 10 10 10 10 10 11 11 11 11 11 11 10 10 10 11 12
4 4 5 5 5 6 6 7 7 7 7 7 7 7 7 7 7 7 7 7 7 8 9 9 9 8 8 9 9 8 8 9 10 11 11 11 12 12 12 12 11 11 10 10 10 11 11 11 11 11 11 11 11 11 10 10 11 11 11 11 11 11 11 10 10 10 10 11 12
4 4 5 5 6 6 7 7 7 7 7 7 8 8 8 8 8 8 8 8 8 8 8 9 9 9 9 9 10 9 9 8 10 11 12 12 12 12 12 12 11 11 10 10 10 10 10 10 11 11 11 11 11 12 12 11 12 12 12 11 11 11 11 10 11 11 12 12 13
4 4 4 5 5 6 7 7 7 7 7 8 8 9 9 9 8 8 9 9 9 8 9 9 9 10 10 10 10 10 10 9 10 11 12 12 12 12 11 11 11 10 10 9 9 10 10 10 10 11 11 11 12 12 12 12 12 12 12 11 11 11 12 12 12 13 13 13 13
4 4 4 5 6 6 7 7 7 7 8 8 8 9 9 9 9 9 9 8 8 8 9 9 9 10 10 10 11 11 11 10 10 11 11 11 11 11 11 10 10 10 10 10 9 9 9 10 10 10 10 11 11 11 12 12 12 12 12 12 13 13 13 13 13 13 13 12 12
4 4 4 5 6 7 7 7 7 8 8 8 8 9 9 9 9 9 9 8 8 8 9 9 9 9 10 10 11 11 12 12 12 12 12 11 11 11 11 10 10 10 10 9 9 9 9 9 9 10 10 10 10 11 11 12 12 11 12 13 13 13 13 13 13 13 12 12 12
4 5 5 5 6 7 7 7 7 8 8 8 9 9 9 9 9 9 9 9 9 9 9 9 9 10 10 11 11 11 12 12 13 12 12 12 11 11 10 10 9 9 9 8 9 10 10 9 9 9 9 9 9 10 10 10 10 11 11 12 12 13 13 13 13 13 13 13 12
5 5 6 6 6 7 7 7 7 8 8 8 8 9 9 9 9 9 9 9 9 10 10 10 10 10 10 10 11 11 11 12 12 12 12 12 11 11 10 10 9 9 9 8 13 17 18 17 13 11 9 8 9 9 9 9 9 10 10 10 11 12 13 14 14 13 13 13 13
5 5 6 6 7 7 7 7 8 8 8 8 8 9 9 9 9 9 9 10 10 10 10 10 10 10 10 10 11 11 11 10 11 11 11 12 12 11 11 10 9 8 8 10 15 19 22 23 22 19 14 10 10 9 9 9 9 10 10 11 11 12 13 13 13 13 13 13 13
5 5 6 6 7 7 7 8 8 8 8 8 9 9 9 9 9 9 10 10 10 10 10 9 9 10 10 10 10 11 11 10 10 11 11 11 12 12 11 10 9 8 8 12 18 21 23 24 25 24 21 15 12 10 10 9 10 10 10 10 10 11 11 12 13 13 13 13 14
5 5 6 7 7 7 8 8 8 8 9 9 9 9 9 9 9 10 10 10 10 10 9 8 8 8 7 8 9 11 11 11 11 11 11 11 11 12 11 10 9 9 11 16 20 23 25 25 26 26 24 20 14 11 10 10 10 9 9 9 9 10 10 11 11 12 13 14 14
5 6 6 7 7 8 8 8 8 9 9 9 9 9 9 9 10 10 10 11 10 9 8 7 7 7 7 8 10 11 11 12 11 10 10 11 11 11 11 11 10 11 14 20 22 24 25 25 26 26 25 23 16 11 8 8 9 9 9 8 9 10 10 11 11 12 13 14 14
6 6 7 7 8 8 8 8 9 9 9 8 9 9 9 10 10 10 11 11 10 9 8 8 7 8 10 11 11 11 11 11 10 10 10 11 12 12 11 12 11 11 14 19 22 24 25 25 25 25 25 25 19 13 9 8 9 9 9 9 9 11 12 13 13 14 14 13 13
6 7 7 7 8 8 9 9 9 9 9 8 9 9 10 10 10 10 9 9 9 9 9 9 10 11 12 12 11 11 11 11 11 10 11 11 12 12 12 12 12 12 14 19 22 24 25 25 25 25 25 25 20 15 11 10 9 9 9 9 11 12 13 13 13 13 14 14 14
7 7 7 8 8 9 9 9 9 9 9 9 10 10 10 10 10 9 8 8 9 9 10 9 11 12 12 12 11 11 11 12 11 11 11 11 12 12 12 12 12 12 15 20 23 24 25 25 26 26 26 26 21 16 13 11 10 10 10 11 12 13 13 12 12 13 14 15 15
7 7 7 8 8 9 9 9 9 9 9 10 10 10 11 11 10 9 9 9 8 9 9 9 11 12 12 12 11 11 12 12 12 12 12 12 12 12 13 12 11 13 16 21 24 25 25 26 26 26 26 26 21 16 13 12 10 10 10 11 12 13 13 14 13 14 14 15 15
7 7 8 8 9 9 9 9 9 9 10 10 10 11 10 10 10 10 9 9 8 8 8 9 9 10 10 10 10 11 12 12 12 12 12 12 12 13 13 12 10 13 17 22 24 25 26 26 26 26 26 25 19 14 12 12 11 10 11 12 12 13 13 13 14 14 14 15 15
7 8 8 8 9 9 9 9 10 10 10 11 11 11 10 9 9 10 10 9 9 8 8 9 9 9 9 10 10 10 11 13 12 12 12 12 13 13 14 13 12 15 19 23 24 25 25 26 26 26 25 23 16 12 10 11 11 11 12 12 13 14 14 14 13 13 13 14 15
8 8 8 9 9 9 9 10 10 10 11 11 11 11 10 9 9 9 9 10 10 9 9 9 9 9 9 10 10 10 11 12 13 13 13 13 13 14 14 14 14 16 19 22 24 24 25 25 26 26 24 19 13 10 9 10 10 10 12 13 13 14 14 14 13 13 13 13 14
7 7 8 9 9 9 10 10 10 11 11 11 11 10 10 10 9 9 8 8 9 9 9 9 10 10 10 10 10 10 11 12 13 13 14 14 14 14 15 15 15 15 17 20 22 24 25 25 26 25 23 17 12 10 9 9 8 9 11 12 13 14 14 13 13 13 13 13 14
7 7 8 8 9 9 10 10 10 11 11 12 10 9 9 9 8 8 8 8 8 9 10 9 10 10 11 11 12 12 12 12 13 13 14 14 14 14 15 16 15 15 16 19 22 23 24 25 26 25 22 16 12 11 9 8 8 9 10 11 12 13 13 12 11 12 12 14 16
7 7 8 8 9 9 10 10 11 11 11 11 10 10 9 8 8 8 8 8 8 8 9 9 10 11 12 12 13 13 13 13 13 13 14 14 14 15 16 17 16 15 15 18 21 23 24 24 25 25 23 17 13 10 9 8 9 10 11 11 11 12 12 12 11 11 12 14 18
7 7 7 8 9 9 10 11 11 11 10 10 10 10 9 8 8 8 8 8 8 8 9 10 11 12 13 14 14 14 14 14 13 13 14 14 15 17 18 17 16 15 15 17 20 22 23 24 25 25 23 16 12 10 9 8 9 10 11 11 10 10 11 11 11 11 11 12 16
7 7 8 8 9 9 10 11 11 11 10 9 10 9 8 8 8 8 8 8 8 9 10 11 12 13 14 14 13 14 14 15 14 14 14 15 15 16 16 15 15 14 14 15 18 21 23 24 25 25 23 17 12 10 8 8 9 11 11 11 10 10 10 11 11 11 11 11 11
Wind_Direction
112 121 124 126 137 159 208 242 249 247 245 243 253 261 265 271 276 278 278 279 278 277 276 275 274 275 276 275 274 274 274 275 275 277 277 279 279 279 280 280 280 280 279 279 278 276 275 271 268 265 261 255 252 250 248 246 244 244 244 243 245 245 245 245 245 245 243 242 242
43 55 75 94 123 161 214 249 260 262 259 252 250 257 265 272 276 278 278 276 273 273 274 275 274 274 274 274 272 272 273 275 277 279 281 282 282 282 282 283 282 281 281 280 280 279 277 274 272 270 267 263 258 256 253 248 246 246 247 245 246 247 247 248 248 248 247 246 246
35 34 33 31 20 8 343 312 303 299 294 288 283 282 282 281 278 277 275 272 270 271 272 274 273 272 272 273 273 273 273 276 279 282 284 284 284 284 284 284 285 284 284 283 283 282 280 278 276 274 271 268 263 261 258 254 250 249 248 247 248 249 250 251 251 250 251 251 250
34 30 24 13 1 350 336 321 313 307 301 298 297 295 290 283 279 276 274 272 273 273 272 272 273 275 275 276 279 280 281 282 285 286 287 288 288 288 288 287 288 287 286 285 284 283 282 282 281 278 275 272 268 266 263 261 255 253 251 250 250 250 250 252 252 252 253 253 251
23 18 10 356 337 323 310 303 301 298 296 297 299 296 291 286 282 281 281 282 281 279 278 279 281 283 285 285 287 288 290 291 292 293 292 292 291 291 291 290 289 288 287 286 286 286 286 287 286 284 281 278 275 272 269 267 264 261 259 258 255 253 252 253 254 253 253 254 253
5 351 338 325 316 309 302 297 293 292 294 301 300 297 293 290 290 290 291 290 289 289 290 291 293 293 294 295 295 296 296 296 296 295 294 293 292 292 292 290 289 288 288 288 287 288 289 291 291 288 286 285 283 281 279 277 275 273 271 269 265 263 261 260 260 259 259 258 258
346 328 318 312 314 310 305 298 295 296 299 301 297 293 291 291 293 293 293 294 296 297 297 298 298 299 299 301 300 300 299 298 296 295 295 294 294 293 292 291 290 290 289 289 290 291 292 292 291 290 288 287 286 285 286 287 286 285 283 281 278 275 273 272 271 271 270 269 267
325 312 305 304 306 304 300 296 298 300 300 296 292 290 289 291 294 296 297 299 299 298 298 300 300 301 302 303 303 302 301 301 300 299 297 296 295 294 293 292 292 291 291 291 292 293 293 292 290 288 286 287 285 285 286 289 290 290 289 288 287 285 283 282 283 281 280 279 278
316 307 304 306 303 299 294 293 295 295 293 290 287 287 289 292 295 297 299 299 298 299 301 303 303 305 305 306 306 306 305 305 303 302 300 299 298 297 296 295 295 294 293 293 293 293 292 292 289 286 284 284 283 283 285 288 289 290 289 288 289 288 287 287 288 288 288 287 287
308 305 307 308 301 297 295 295 295 292 290 288 288 289 291 294 296 297 297 298 301 304 306 306 307 309 310 309 309 308 307 305 304 302 301 299 298 297 297 297 296 295 295 295 293 293 292 290 287 285 283 281 281 282 284 285 286 287 286 286 286 287 287 286 287 288 289 289 288
306 305 305 304 299 298 300 302 298 295 292 290 290 292 294 296 297 298 300 304 307 308 307 307 310 311 310 310 308 307 305 304 303 301 300 299 298 297 296 296 295 294 294 293 293 292 291 289 286 284 283 282 282 283 285 285 285 285 285 284 284 285 285 285 286 287 287 288 288
311 310 308 304 304 306 308 307 303 300 297 295 295 296 298 299 301 304 307 311 310 307 306 307 309 310 309 307 305 304 303 301 301 299 299 297 297 296 295 294 293 292 291 291 291 291 289 287 286 286 286 285 285 285 286 286 286 286 286 285 286 285 285 285 285 285 286 287 287
318 317 316 314 316 317 317 313 309 306 303 301 301 303 304 305 307 309 310 310 308 306 305 306 306 306 304 302 301 301 300 300 299 298 297 295 295 294 293 292 290 290 289 289 289 289 288 287 286 287 287 288 287 286 286 287 287 286 286 286 286 285 284 284 285 285 286 287 285
325 323 322 322 323 324 323 318 314 311 309 307 307 307 308 307 308 309 308 306 304 303 303 304 303 301 299 298 298 298 298 297 297 296 294 293 292 291 290 289 288 288 288 288 288 287 287 287 286 287 287 288 288 287 286 286 285 284 283 284 284 283 283 283 284 286 286 286 284
329 327 327 328 328 326 324 320 317 314 312 309 308 308 308 306 306 305 304 302 300 299 300 300 299 297 295 295 295 296 296 296 295 294 292 291 290 289 288 288 288 287 287 287 287 286 285 284 285 285 286 286 286 286 285 284 283 282 281 280 281 281 282 283 284 285 285 284 283
331 329 329 330 329 327 324 321 317 314 311 307 306 306 305 303 303 302 301 299 298 298 297 296 295 295 294 294 293 294 294 293 292 291 290 289 289 288 287 287 287 287 286 286 286 285 284 283 283 283 284 283 284 284 283 283 281 280 279 278 279 280 281 282 284 283 282 281 280
329 329 328 329 328 325 321 318 315 311 308 304 304 303 302 301 301 300 299 298 297 297 296 293 293 293 294 293 292 292 292 291 290 289 288 287 287 287 287 286 286 285 285 284 285 285 284 283 283 283 283 282 282 281 281 280 280 279 278 278 278 278 279 281 281 281 280 280 279
327 327 327 327 325 322 318 315 312 308 305 303 302 301 300 299 299 298 297 295 294 294 293 292 292 292 292 292 291 290 289 289 288 287 286 286 286 286 286 286 285 285 284 283 283 283 284 284 284 284 283 282 281 280 280 280 279 278 278 278 278 278 278 278 278 278 278 278 278
324 325 325 324 322 318 315 313 310 307 305 303 302 302 300 299 298 297 296 294 292 291 291 292 292 291 290 289 289 289 288 287 287 287 287 286 287 287 286 286 286 285 284 283 282 282 283 284 285 285 284 283 282 281 280 279 278 278 278 278 278 277 277 277 275 275 275 275 276
323 323 323 321 318 316 313 311 308 306 305 304 303 302 300 299 298 296 295 293 292 291 290 291 291 291 290 289 289 288 288 287 287 287 287 287 287 286 286 286 286 285 284 282 282 282 282 283 284 284 284 283 282 282 281 280 279 278 278 278 277 277 276 275 274 273 273 273 274
321 321 319 318 316 313 311 308 307 306 305 304 302 301 299 298 297 295 293 291 291 291 291 290 290 290 290 290 290 289 288 288 288 287 287 287 286 285 285 285 285 285 284 283 282 282 282 282 283 283 282 282 281 280 280 280 279 278 277 276 276 275 274 273 273 273 273 272 270
318 318 317 316 313 310 308 306 306 305 303 302 300 299 298 297 296 294 292 291 291 291 291 290 289 289 290 290 290 290 290 289 288 287 287 287 286 286 285 286 286 287 286 285 284 284 283 282 281 280 280 279 278 276 275 275 276 276 275 274 273 274 274 274 275 274 273 272 270
315 316 315 313 310 308 307 305 304 303 302 300 299 298 298 297 295 294 293 293 293 292 291 290 290 290 290 290 290 291 291 291 289 288 287 287 287 287 288 288 288 287 287 285 284 283 282 282 280 277 275 274 273 272 271 271 271 272 272 272 273 274 275 276 277 276 275 274 272
314 315 313 310 308 306 304 303 302 301 299 298 298 297 297 296 296 296 295 295 294 293 293 293 292 292 291 291 291 291 291 291 291 290 289 289 289 289 289 289 288 286 285 284 283 283 283 282 280 277 274 271 270 270 270 269 269 270 271 273 276 278 280 280 280 279 278 277 275
312 311 309 307 305 303 302 301 300 298 297 296 296 296 297 296 297 297 297 296 295 294 294 294 294 294 293 293 292 291 290 290 291 291 291 291 291 290 290 290 289 287 285 283 284 286 288 289 289 287 282 278 277 276 275 273 272 273 275 276 280 283 285 286 284 283 281 280 278
308 307 305 302 301 300 299 298 296 295 295 295 296 296 296 296 296 297 297 297 296 295 295 295 295 296 296 295 294 293 292 291 291 291 291 292 292 291 290 289 288 287 286 284 287 289 292 294 295 295 294 291 290 288 287 285 283 282 281 282 284 286 288 289 288 286 284 282 280
304 302 299 297 297 297 296 295 295 295 295 296 296 296 295 296 297 297 297 296 296 295 295 296 295 296 297 296 295 294 293 292 292 291 290 290 290 290 289 288 287 285 284 285 289 293 295 297 299 299 300 298 296 295 294 293 291 289 287 286 287 287 288 288 288 288 287 285 283
296 294 293 294 294 294 294 295 296 296 295 295 295 295 295 296 297 297 297 296 297 298 298 297 296 297 297 296 294 293 292 292 291 291 290 289 288 289 289 288 288 286 287 290 295 297 299 301 301 301 301 300 298 295 293 293 293 292 291 289 288 288 287 286 286 287 286 286 285
286 287 289 291 292 293 294 295 295 294 293 293 293 294 296 297 297 297 298 298 299 300 300 299 299 298 297 294 293 292 291 291 291 291 291 291 290 290 289 289 289 289 292 295 298 300 301 301 301 301 301 301 300 298 296 295 295 295 293 291 289 288 287 286 284 283 284 284 284
279 281 284 286 289 292 293 292 291 291 291 292 294 296 298 299 299 299 300 300 300 299 298 298 298 297 295 293 293 293 293 292 292 292 292 292 292 291 291 290 291 292 294 298 299 300 301 301 302 302 302 303 302 300 298 297 295 294 292 289 286 285 283 283 281 281 282 283 283
274 276 280 284 288 290 290 289 289 290 292 295 297 299 300 300 300 300 300 300 299 298 298 297 296 294 292 292 292 292 293 293 293 293 293 292 292 292 292 291 292 292 294 298 300 301 302 302 303 303 304 304 304 302 299 296 294 291 289 286 283 282 281 281 281 280 281 281 282
269 273 278 284 286 287 288 288 290 292 295 298 300 301 301 300 299 298 298 298 298 299 299 298 296 295 294 294 293 293 293 294 294 293 292 292 292 292 292 292 293 293 295 299 301 302 303 304 304 305 305 305 303 301 299 296 293 289 286 283 281 280 280 280 279 279 279 280 279
268 272 277 281 284 286 287 290 293 297 299 301 301 300 300 299 299 298 298 298 298 298 298 297 296 296 295 296 296 295 294 293 293 293 293 292 292 293 293 294 293 295 297 300 302 303 304 305 305 305 305 305 303 301 298 295 291 288 285 282 281 280 279 277 277 277 277 277 277
270 273 276 278 282 286 291 295 298 300 302 302 301 300 300 299 300 300 300 299 298 297 295 294 294 294 293 294 294 295 295 295 294 294 294 294 294 294 294 294 294 296 299 301 302 303 304 305 306 305 305 305 302 300 296 292 289 286 283 281 280 279 278 277 275 274 273 273 274
269 271 274 278 285 291 296 300 302 302 302 302 300 300 299 298 298 298 298 299 298 297 295 294 293 292 292 292 292 293 294 295 295 295 295 295 296 295 295 294 293 296 298 300 302 303 304 305 306 305 305 304 302 298 293 289 286 284 282 281 280 279 279 278 276 274 272 270 271
263 268 276 285 292 297 301 303 303 303 302 301 300 300 299 298 297 297 297 298 299 298 296 295 295 294 294 294 294 294 294 295 296 296 297 297 297 297 296 295 294 295 298 300 301 303 304 305 305 306 305 304 300 295 290 287 285 283 282 282 281 280 280 278 277 275 272 270 269
263 273 284 293 298 301 302 302 302 302 301 300 300 299 299 299 298 298 298 299 299 297 296 296 296 296 295 295 295 294 294 294 296 297 298 298 298 297 296 296 295 295 296 299 301 303 304 305 306 306 305 303 298 294 291 288 285 284 283 283 282 281 280 279 278 276 273 269 268
278 286 293 297 299 301 302 302 302 301 300 299 299 298 298 298 298 298 298 299 298 298 297 297 296 295 295 295 295 295 294 295 296 297 297 298 297 296 296 295 294 294 295 298 301 303 304 305 305 305 304 301 298 296 293 289 286 284 283 282 282 281 280 279 278 276 273 269 269
291 294 296 298 300 300 301 301 300 300 299 299 299 298 298 298 297 297 297 298 296 296 296 297 296 296 296 297 297 297 297 296 296 296 296 296 295 295 295 295 295 294 296 298 301 303 304 305 305 305 304 301 299 296 292 288 285 283 282 281 281 280 279 277 276 275 272 269 270
296 297 298 299 300 300 300 300 299 298 298 298 298 298 298 297 296 296 297 297 296 295 296 296 296 296 297 299 299 298 298 297 296 295 295 295 294 295 295 295 294 294 295 298 301 302 304 305 304 304 304 301 298 294 289 286 284 283 282 281 280 279 278 277 275 274 273 271 272
298 299 300 299 299 299 299 299 298 298 298 297 297 296 296 296 296 297 298 298 297 297 297 297 297 297 298 299 298 298 298 297 296 295 295 295 295 295 295 294 293 293 294 297 300 303 304 305 304 304 303 300 297 292 287 284 283 282 282 280 279 278 277 277 276 276 275 274 274